Location: Pinawa
(50.1500°N, 95.8830°W)
Time: 02:07:40
(UTC-06:00)

ISS - All Passes

Search period start: 24 November 2014 00:00
Search period end: 04 December 2014 00:00
Orbit: 408 x 417 km, 51.6° (Epoch: 24 November)

Date Brightness Start Highest point End Pass type
(mag) Time Alt. Az. Time Alt. Az. Time Alt. Az.
24 Nov - 00:12:04 10° SSE 00:13:36 13° SE 00:15:09 10° ESE night (unlit)
24 Nov - 01:46:28 10° SW 01:49:42 55° SSE 01:52:56 10° ENE night (unlit)
24 Nov - 03:23:04 10° W 03:26:21 67° N 03:29:38 10° ENE night (unlit)
24 Nov - 04:59:49 10° WNW 05:03:08 87° NNE 05:06:27 10° ESE visible
24 Nov - 06:36:41 10° W 06:39:33 28° SW 06:42:26 10° SSE visible
25 Nov - 00:56:56 10° SW 01:00:00 37° SSE 01:03:05 10° E night (unlit)
25 Nov - 02:33:14 10° W 02:36:32 75° N 02:39:50 10° ENE night (unlit)
25 Nov - 04:10:02 10° WNW 04:13:20 73° N 04:16:38 10° E visible
25 Nov - 05:46:46 10° W 05:49:54 41° SSW 05:53:02 10° SE visible
26 Nov - 00:07:32 10° SSW 00:10:19 25° SE 00:13:06 10° E night (unlit)
26 Nov - 01:43:24 10° WSW 01:46:42 89° SSE 01:50:00 10° ENE night (unlit)
26 Nov - 03:20:11 10° W 03:23:28 66° N 03:26:45 10° E night (unlit)
26 Nov - 04:56:53 10° WNW 05:00:08 59° SSW 05:03:23 10° ESE visible
26 Nov - 06:34:26 10° WSW 06:36:16 14° SW 06:38:06 10° S visible
26 Nov - 23:18:25 10° S 23:20:38 17° SE 23:22:51 10° E night (unlit)
27 Nov - 00:53:34 10° WSW 00:56:50 68° SSE 01:00:07 10° ENE night (unlit)
27 Nov - 02:30:15 10° W 02:33:32 65° N 02:36:50 10° E night (unlit)
27 Nov - 04:06:59 10° WNW 04:10:17 81° SSW 04:13:35 10° ESE visible
27 Nov - 05:44:00 10° W 05:46:35 21° SW 05:49:11 10° SSE visible
27 Nov - 22:30:04 10° SSE 22:30:57 11° SE 22:31:51 10° ESE night (unlit)
28 Nov - 00:03:47 10° SW 00:06:58 48° SSE 00:10:10 10° ENE night (unlit)
28 Nov - 01:40:16 10° W 01:43:34 69° N 01:46:52 10° ENE night (unlit)
28 Nov - 03:17:03 10° WNW 03:20:21 81° NNE 03:23:39 10° E night (unlit)
28 Nov - 04:53:50 10° W 04:56:49 32° SSW 04:59:47 10° SSE visible
28 Nov - 23:14:06 10° SW 23:17:05 33° SSE 23:20:05 10° E night (unlit)
29 Nov - 00:50:15 10° W 00:53:33 80° NNW 00:56:52 10° ENE night (unlit)
29 Nov - 02:27:03 10° WNW 02:30:20 70° N 02:33:38 10° E night (unlit)
29 Nov - 04:03:44 10° WNW 04:06:56 47° SSW 04:10:06 10° SE night (unlit)
29 Nov - 05:42:16 10° WSW 05:42:55 10° SW 05:43:34 10° SSW visible
29 Nov - 22:24:36 10° SSW 22:27:13 22° SE 22:29:51 10° E night (unlit)
30 Nov - 00:00:13 10° WSW 00:03:31 82° SSE 00:06:50 10° ENE night (unlit)
30 Nov - 01:36:59 10° W 01:40:16 65° N 01:43:33 10° E night (unlit)
30 Nov - 03:13:40 10° WNW 03:16:57 67° SSW 03:20:13 10° ESE night (unlit)
30 Nov - 04:50:58 10° W 04:53:08 17° SW 04:55:18 10° S visible
30 Nov - 21:35:27 10° S 21:37:21 15° SE 21:39:15 10° ESE night (unlit)
30 Nov - 23:10:13 10° WSW 23:13:28 61° SSE 23:16:44 10° ENE night (unlit)
01 Dec - 00:46:51 10° W 00:50:08 66° N 00:53:25 10° E night (unlit)
01 Dec - 02:23:34 10° WNW 02:26:53 88° SSW 02:30:11 10° ESE night (unlit)
01 Dec - 04:00:28 10° W 04:03:14 25° SW 04:05:59 10° SSE night (unlit)
01 Dec - 22:20:17 10° SW 22:23:25 42° SSE 22:26:33 10° E night (unlit)
01 Dec - 23:56:40 10° W 23:59:57 72° N 00:03:15 10° ENE night (unlit)
02 Dec - 01:33:26 10° WNW 01:36:44 76° NNE 01:40:02 10° E night (unlit)
02 Dec - 03:10:09 10° W 03:13:14 37° SSW 03:16:18 10° SE night (unlit)
02 Dec - 21:30:28 10° SSW 21:33:21 28° SSE 21:36:15 10° E night (unlit)
02 Dec - 23:06:27 10° WSW 23:09:45 86° NNW 23:13:04 10° ENE night (unlit)
03 Dec - 00:43:13 10° WNW 00:46:30 67° N 00:49:48 10° E night (unlit)
03 Dec - 02:19:54 10° WNW 02:23:08 54° SSW 02:26:21 10° SE night (unlit)
03 Dec - 03:57:42 10° WSW 03:59:11 13° SW 04:00:40 10° SSW night (unlit)
03 Dec - 20:40:54 10° S 20:43:18 19° SE 20:45:42 10° E night (unlit)
03 Dec - 22:16:14 10° WSW 22:19:31 74° SSE 22:22:49 10° ENE night (unlit)
03 Dec - 23:52:56 10° W 23:56:14 65° N 23:59:31 10° E night (unlit)
